0 HST 1 20580U 90037B 25310.27443333 .00009080 00000-0 32137-3 0 9990 2 20580 28.4659 160.5613 0001673 176.9772 183.0833 15.27337496754413 0 ISS (ZARYA) 1 25544U 98067A 25310.29236606 .00011954 00000-0 21866-3 0 9991 2 25544 51.6335 322.9076 0005124 22.8618 337.2598 15.49789706537203 0 CXO 1 25867U 99040B 25312.23653082 .00000686 00000-0 00000-0 0 9992 2 25867 52.4220 123.7217 8202474 310.7381 359.8594 0.37807226 16485